Location: Godiavel Galaoual
(15.2485°N, 12.6604°W)
Time: 15:21:38
(UTC+00:00)

Daily predictions for brighter satellites

Satellite Brightness Start Highest point End
(mag) Time Altitude Azimuth Time Altitude Azimuth Time Altitude Azimuth
CZ-4 R/B 1.9 19:10:08 10° SE 19:14:03 39° ENE 19:17:57 10° N
Cosmos 1570 Rocket 4.1 19:13:42 10° S 19:18:47 54° ESE 19:23:52 10° NNE
DELTA 2 R/B(2) 4.5 19:16:34 10° NW 19:18:51 80° NE 19:24:36 10° SE
YAOGAN 1 3.2 19:15:27 10° SE 19:19:21 34° ENE 19:23:15 10° NNE
Hubble Space Telescope 3.0 19:20:35 10° NNW 19:22:48 14° N 19:25:00 10° NE
Cosmos 540 Rocket 4.0 19:19:21 10° SSE 19:23:59 36° E 19:28:37 10° NE
Cosmos 44 3.7 19:24:46 10° N 19:28:59 36° ENE 19:33:25 10° SE
FALCON 9 R/B 4.1 19:10:17 10° WNW 19:32:40 42° N 19:38:38 13° ENE
CSL-04 Debris 4.4 19:27:49 10° SSE 19:33:00 47° ENE 19:38:12 10° N
IUS-7 SRM-1 3.5 19:31:28 10° W 19:33:57 29° SSW 19:35:49 10° SE
APEX 3.4 19:30:55 10° SSW 19:34:43 82° ESE 19:39:38 10° NNE
SL-4 R/B 4.3 19:33:16 10° WNW 19:37:14 29° WSW 19:40:59 10° S
NOAA 11 4.1 19:36:08 10° SSE 19:41:33 72° ENE 19:46:57 10° N
ATLAS 2AS CENTAUR R/B 3.5 19:39:30 10° S 19:46:12 35° ESE 19:53:13 10° NE
Cosmos 1464 Rocket 4.2 19:41:11 10° S 19:47:30 81° W 19:53:53 10° N
Cosmos 1441 Rocket 4.3 19:44:56 10° SE 19:47:55 22° E 19:48:40 21° ENE
ATLAS CENTAUR Rocket 2.7 19:45:12 10° W 19:48:55 56° NNW 19:55:53 14° ENE
Ariane H10+ 2.7 19:51:16 10° SSW 19:51:44 10° SSW 19:52:10 10° S
NOSS 2-2 (D) 4.3 19:50:15 10° SW 19:54:06 44° WNW 19:57:33 10° N
CZ-2C R/B 4.4 19:52:32 10° NE 19:56:47 33° E 20:01:04 10° SSE
FALCON 9 R/B 3.3 19:52:29 10° WSW 19:57:46 87° NNW 20:19:47 17° ENE
Cosmos 1656 4.0 19:53:32 10° S 19:58:36 40° ESE 20:03:03 13° NE
H-2A R/B 3.3 20:03:39 22° NE 20:03:39 22° NE 20:06:44 10° NNE
Cosmos 1697 Rocket 3.9 20:01:09 10° SSE 20:04:30 22° ESE 20:04:30 22° ESE
Cosmos 2034 Rocket 4.2 20:04:02 10° S 20:10:12 74° W 20:16:20 10° N
HJ-1C 3.2 20:07:50 10° SSE 20:11:06 65° ENE 20:14:21 10° N
SWIFT 4.2 20:09:48 10° SSW 20:12:36 17° SSE 20:12:52 17° SSE
Delta 198 4.1 20:08:09 10° WNW 20:14:26 83° SSW 20:16:55 34° ESE
Centaur AC-112 3.2 20:12:59 10° WNW 20:16:13 73° NNE 20:20:46 28° ESE
USA 267 3.3 20:12:11 22° NE 20:16:28 61° SE 20:22:53 10° SSW
STARLINK-60 3.7 20:17:55 10° NW 20:21:07 52° SW 20:21:47 42° SSW
COSMOS 2487 2.4 20:18:05 10° NNW 20:21:31 78° WSW 20:22:21 48° S
Meteor 1-18 Rocket 4.3 20:24:41 10° N 20:30:29 82° W 20:36:09 10° S
Okean 1 3.6 20:27:06 10° NNW 20:31:02 66° W 20:34:56 10° S
Okean 1-7 3.7 20:29:10 10° NNW 20:33:24 54° W 20:37:40 10° S
Cosmos 1634 Rocket 3.9 20:27:33 10° S 20:33:47 66° E 20:40:02 10° NNE
COSMOS 2455 2.7 20:27:54 10° SSW 20:33:52 79° ESE 20:36:27 36° NNE
GPS 2-12 Rocket1 3.1 20:29:53 10° W 20:34:18 60° N 20:34:21 60° N
Cosmos 405 4.3 20:31:34 10° NNW 20:34:55 40° W 20:38:15 10° SSW
Cosmos 2344 4.4 20:28:06 10° S 20:34:45 32° SE 20:34:45 32° SE
Cosmos 1500 3.8 20:33:42 10° SSW 20:37:25 54° W 20:38:19 42° NW
Cosmos 1932 4.5 20:32:30 10° NNW 20:39:01 84° WSW 20:43:46 19° SSE
deb Centaur AC-2 4.1 20:34:48 10° SW 20:39:01 73° S 20:39:01 73° S
Timation 2 Rocket 4.3 20:34:06 10° N 20:40:19 51° ENE 20:40:19 51° ENE
H-2A R/B 3.9 19:56:51 10° W 20:40:53 42° NNW 20:44:20 26° NNE
OAO 1 4.4 20:40:46 10° NW 20:46:12 84° N 20:46:12 84° N
Centaur D-1AR AC-39 2.5 20:37:06 10° WNW 20:48:37 58° N 20:48:52 57° NNE
Meteor 1-11 Rocket 3.8 20:42:59 10° S 20:48:40 75° W 20:54:13 10° N
Cosmos 1733 Rocket 3.6 20:45:46 10° SSW 20:49:47 55° WSW 20:49:47 55° WSW
SJ 16-02 2.9 20:47:51 10° NNW 20:49:59 28° NNW 20:49:59 28° NNW
Cosmos 1898 Rocket 3.6 20:49:28 10° NNW 20:54:38 69° WSW 20:54:42 69° WSW
CZ-2C R/B 4.5 20:59:42 31° N 20:59:42 31° N 21:02:35 10° N
Palapa 6 Rocket 4.5 20:55:35 10° W 20:57:50 33° W 20:57:50 33° W
Ariane Rocket 4.0 20:59:01 10° S 21:03:49 43° WSW 21:08:39 10° NNW
Hubble Space Telescope 3.5 21:00:58 10° NW 21:01:40 14° NW 21:01:40 14° NW
NOSS 3-4 (A) 3.5 20:58:48 10° SSW 21:04:44 66° WNW 21:04:53 66° NW
NOSS 3-4 (C) 3.5 20:58:52 10° SSW 21:04:49 68° WNW 21:04:54 68° WNW
ATLAS 2AS CENTAUR R/B 4.3 21:30:12 10° WSW 21:36:59 34° WNW 21:41:22 21° NNW
H-2A R/B 4.5 21:44:16 18° WNW 21:44:16 18° WNW 21:46:04 10° NW
Intelsat 5-1 Rocket 4.4 21:43:25 10° WNW 21:49:05 61° NNW 21:49:05 61° NNW
CZ-3 Stage 3 4.2 21:55:13 10° SW 22:37:29 21° ENE 23:06:07 10° ENE
